Snowfall_Accumulation
0.0 0.0 0.0 0.0 0.0 0.0 0.0 0.0 0.0 0.0 0.0 0.0 0.0 0.0 0.0 0.0 0.0 0.0 0.0 0.0 0.0 0.0 0.0 0.0 0.0 0.0 0.0 0.0 0.0 0.0 0.0 0.0 0.1 0.4 0.0 0.1 0.2 0.1 0.0 0.0 0.0 0.0 0.0
0.0 0.0 0.0 0.0 0.0 0.0 0.0 0.0 0.0 0.0 0.0 0.0 0.0 0.0 0.0 0.0 0.0 0.0 0.0 0.0 0.0 0.0 0.0 0.0 0.0 0.0 0.0 0.0 0.0 0.0 0.0 0.0 0.1 0.1 1.0 1.5 0.8 0.0 0.0 0.0 0.0 0.0 0.0
0.0 0.0 0.0 0.0 0.0 0.0 0.0 0.0 0.0 0.0 0.0 0.0 0.0 0.0 0.0 0.0 0.0 0.0 0.0 0.0 0.0 0.0 0.0 0.0 0.0 0.0 0.0 0.1 0.0 0.0 0.0 0.0 0.0 0.2 1.0 0.6 0.8 0.2 0.3 0.3 0.5 0.4 0.0
0.0 0.0 0.0 0.0 0.0 0.0 0.0 0.0 0.0 0.0 0.0 0.0 0.0 0.0 0.0 0.0 0.0 0.0 0.0 0.0 0.0 0.0 0.0 0.0 0.0 0.0 0.0 0.0 0.0 0.0 0.0 0.2 0.2 0.4 0.6 0.6 0.6 0.8 0.7 1.0 1.9 1.3 1.5
0.0 0.0 0.0 0.0 0.0 0.0 0.0 0.0 0.1 0.0 0.0 0.0 0.0 0.0 0.0 0.0 0.0 0.0 0.0 0.0 0.0 0.0 0.0 0.0 0.0 0.0 nan nan 0.1 0.1 0.1 0.2 0.7 1.1 1.0 0.9 0.7 1.1 1.6 1.5 3.2 2.3 1.7
0.0 0.0 0.0 0.1 0.1 0.1 0.1 0.1 0.1 0.1 0.1 0.1 0.1 0.1 0.1 0.0 nan nan 0.0 0.0 0.1 0.1 0.1 0.1 0.1 0.1 0.1 nan nan nan nan 0.1 2.0 2.7 1.1 1.1 0.6 1.7 2.5 3.8 4.6 5.8 7.6
0.1 0.1 0.1 0.1 0.1 0.1 0.1 0.1 0.1 0.1 0.1 0.1 0.1 0.1 0.1 0.1 nan nan nan 0.1 0.1 0.1 0.1 0.1 0.1 0.1 0.1 0.1 nan nan nan nan nan 0.2 1.1 1.3 3.8 2.6 3.5 5.3 4.6 6.1 4.6
0.2 0.2 0.2 0.2 0.3 0.2 0.2 0.2 0.1 0.1 0.1 0.1 0.1 0.1 0.1 0.1 nan nan nan 0.1 0.1 0.1 0.1 0.1 0.2 0.2 0.1 0.1 0.2 0.4 0.5 0.5 0.4 0.6 1.1 1.7 1.7 1.0 1.5 2.8 4.6 5.1 4.5
0.1 0.2 0.2 0.3 0.6 0.3 0.8 0.3 0.2 0.4 0.4 0.5 0.4 1.1 1.0 0.7 nan nan 0.2 0.3 0.3 0.3 0.2 0.2 0.2 0.3 nan nan 1.1 3.4 4.0 2.9 nan nan nan nan nan nan nan 6.6 16.5 18.3 10.2
0.1 0.1 0.2 0.3 1.0 0.6 0.3 0.8 1.0 1.0 1.4 2.4 1.5 1.4 0.8 1.8 nan nan nan 2.1 2.6 2.4 1.2 0.7 1.1 0.5 nan nan 1.9 4.4 9.3 4.2 3.5 4.9 3.3 1.5 nan nan nan 2.3 5.6 17.4 10.6
0.4 0.5 0.7 0.6 1.3 0.5 1.0 1.2 2.0 2.8 2.2 3.3 3.7 2.8 2.5 1.3 0.8 nan nan 1.3 3.0 5.9 5.7 4.4 2.7 nan nan nan nan 4.0 5.0 3.4 6.2 6.2 5.7 5.3 4.2 3.8 3.8 3.2 2.6 3.9 8.7
1.2 1.4 1.9 2.2 1.7 1.5 3.4 3.0 4.2 4.1 4.6 5.6 5.4 4.9 3.7 2.2 nan nan nan nan nan 8.5 6.1 3.9 3.4 nan nan nan 2.0 nan nan 3.0 8.7 10.5 10.6 9.2 6.5 5.6 3.9 2.9 1.2 1.3 1.1
3.7 5.5 5.3 4.5 3.8 3.3 4.5 4.6 6.6 5.2 8.1 5.5 6.2 5.8 4.2 3.7 3.5 nan nan nan nan 5.7 3.9 3.6 nan nan nan nan nan nan 1.7 7.1 9.6 13.3 9.9 5.8 3.6 2.5 1.3 2.3 1.4 1.6 1.2
7.1 4.3 3.5 4.8 3.5 4.5 5.0 5.8 8.4 7.6 7.3 8.0 9.2 8.5 5.7 5.9 4.9 4.0 5.1 3.3 3.2 6.1 nan 4.6 nan 3.0 nan nan 3.4 3.0 4.9 5.7 6.7 8.0 6.9 3.8 2.4 4.3 5.6 4.0 6.2 5.4 9.6
5.1 3.5 3.8 5.1 6.0 4.1 3.6 5.0 4.6 2.8 6.0 12.0 14.0 10.6 13.1 13.2 9.4 3.7 8.3 11.1 8.9 8.9 7.1 12.3 10.2 7.0 6.7 6.1 7.7 6.8 6.0 6.8 8.2 7.6 8.8 7.5 6.8 6.9 6.3 5.1 6.1 8.5 11.1
3.7 5.4 4.4 4.6 4.2 4.1 4.8 4.9 nan nan nan nan nan 8.2 10.7 nan nan nan nan nan nan nan 17.2 19.2 11.0 9.1 7.6 7.7 9.3 8.7 7.9 6.7 7.7 8.9 9.3 8.5 9.0 7.8 8.2 9.0 8.4 10.0 11.1
6.0 5.0 6.2 5.0 5.8 6.6 7.1 8.2 9.3 6.7 nan nan nan nan nan nan nan nan nan nan nan nan 26.7 15.5 14.8 10.7 10.2 8.5 10.1 9.5 9.5 7.7 6.5 9.9 9.5 10.0 10.8 11.8 12.0 11.3 9.5 9.1 12.7
7.4 2.5 8.1 7.9 7.7 8.1 8.6 9.1 9.5 11.0 12.3 10.3 nan nan nan nan nan nan nan nan 25.1 nan 21.4 23.5 20.2 16.3 13.3 12.7 11.2 11.4 11.3 10.9 10.4 11.2 11.8 15.1 16.5 18.2 16.7 15.4 12.4 14.7 13.5
8.2 7.2 7.8 8.0 7.9 8.1 9.0 8.6 9.2 9.6 10.1 12.2 11.9 12.0 6.7 nan nan nan nan 17.7 24.5 22.0 21.7 22.5 19.5 18.9 16.5 17.1 16.1 17.6 15.5 15.9 15.6 19.7 19.3 20.8 18.9 19.6 18.5 13.4 11.1 6.9 8.1
8.8 3.7 6.8 11.1 9.9 9.2 7.3 9.4 9.1 9.5 10.2 11.6 12.0 10.6 16.7 16.7 22.5 23.2 20.0 25.5 25.2 23.3 21.1 23.0 23.5 25.6 25.6 23.6 23.3 21.7 21.9 22.4 20.6 21.7 21.7 20.3 18.7 19.4 14.1 18.0 15.9 14.0 14.5
13.2 11.6 2.7 10.6 13.2 13.3 13.6 11.5 9.3 12.5 11.4 13.3 11.0 10.8 nan 18.1 18.5 20.3 23.2 21.9 24.8 26.4 22.3 23.9 25.1 30.3 30.5 32.8 28.8 28.0 26.4 18.1 21.4 23.5 24.7 24.0 23.1 27.2 17.4 12.0 16.0 17.1 16.9
14.9 15.3 15.4 16.7 12.4 13.2 14.8 11.0 12.2 12.2 11.8 10.7 9.0 9.8 nan 12.2 15.1 15.9 17.3 21.8 25.3 25.4 27.9 31.6 31.1 33.2 30.5 28.7 26.7 24.9 21.3 24.3 25.9 24.9 21.2 21.9 24.9 22.1 21.2 15.3 15.6 14.0 17.6
13.1 11.8 13.1 13.7 13.4 6.8 15.3 17.0 15.2 14.6 13.4 14.4 12.8 12.5 14.6 18.5 15.7 15.4 22.1 24.8 20.7 19.7 22.2 23.3 22.0 21.8 20.3 23.1 20.9 20.2 21.6 23.8 24.6 30.4 22.9 23.6 23.3 25.9 23.1 20.6 18.2 19.9 18.5
13.6 13.9 13.4 16.4 14.7 13.1 15.3 16.3 14.3 6.3 14.7 15.5 23.9 19.5 12.2 15.7 22.7 18.1 19.1 21.9 18.6 28.7 21.8 23.1 19.8 19.5 20.8 28.5 34.2 33.6 35.7 37.0 36.0 33.4 30.6 23.0 23.0 19.2 20.4 22.1 17.7 16.3 14.5
17.0 14.6 14.5 13.4 19.2 15.9 15.2 17.9 13.3 17.7 20.7 17.0 20.3 15.7 16.5 16.1 17.4 22.9 21.5 18.0 19.8 18.4 16.0 16.1 16.3 16.5 16.9 17.4 23.2 28.5 27.7 4.5 19.3 4.9 27.9 20.8 24.3 24.9 24.2 20.5 18.8 16.4 14.3
14.1 14.7 15.3 15.8 15.8 17.0 17.7 17.5 18.0 15.0 18.6 19.7 18.8 19.1 16.8 16.7 16.4 19.1 17.9 18.0 14.9 15.4 15.6 16.6 16.1 14.1 13.4 15.2 16.3 6.9 4.2 3.7 23.3 4.3 23.6 20.4 23.2 22.4 22.4 22.4 20.9 19.2 15.6
Water_Equivalent
0.00 0.00 0.00 0.00 0.00 0.00 0.00 0.00 0.00 0.00 0.00 0.00 0.00 0.00 0.00 0.00 0.00 0.00 0.00 0.00 0.00 0.00 0.00 0.00 0.00 0.00 0.00 0.00 0.00 0.00 0.00 0.00 0.05 0.08 0.00 0.01 0.05 0.02 0.00 0.00 0.00 0.00 0.00
0.00 0.00 0.00 0.00 0.00 0.00 0.00 0.00 0.00 0.00 0.00 0.00 0.00 0.00 0.00 0.00 0.00 0.00 0.00 0.00 0.00 0.00 0.00 0.00 0.00 0.00 0.00 0.00 0.00 0.00 0.00 0.00 0.02 0.02 0.19 0.27 0.15 0.01 0.01 0.01 0.00 0.00 0.02
0.00 0.00 0.00 0.00 0.00 0.00 0.00 0.00 0.00 0.00 0.00 0.00 0.00 0.00 0.00 0.00 0.00 0.00 0.00 0.00 0.00 0.00 0.00 0.00 0.00 0.00 0.02 0.03 0.00 0.02 0.02 0.00 0.00 0.07 0.24 0.15 0.17 0.06 0.07 0.08 0.13 0.11 0.01
0.00 0.00 0.00 0.00 0.00 0.00 0.00 0.00 0.00 0.00 0.00 0.00 0.00 0.00 0.00 0.00 0.00 0.00 0.00 0.00 0.00 0.00 0.00 0.00 0.00 0.00 0.01 0.01 0.01 0.01 0.01 0.07 0.07 0.15 0.19 0.15 0.14 0.20 0.21 0.23 0.37 0.28 0.33
0.00 0.00 0.00 0.00 0.00 0.00 0.00 0.01 0.02 0.02 0.00 0.00 0.00 0.01 0.00 0.00 0.00 0.00 0.00 0.00 0.01 0.00 0.02 0.01 0.00 0.00 nan nan 0.05 0.03 0.03 0.08 0.22 0.31 0.26 0.21 0.16 0.21 0.32 0.32 0.60 0.43 0.32
0.00 0.00 0.00 0.02 0.03 0.02 0.02 0.03 0.03 0.03 0.02 0.03 0.03 0.03 0.02 0.00 nan nan 0.01 0.01 0.02 0.03 0.02 0.02 0.02 0.03 0.02 nan nan nan nan 0.05 0.51 0.71 0.27 0.24 0.14 0.37 0.52 0.64 0.74 0.78 0.93
0.03 0.05 0.05 0.04 0.04 0.04 0.03 0.03 0.03 0.03 0.03 0.03 0.03 0.03 0.03 0.02 nan nan nan 0.05 0.04 0.02 0.03 0.03 0.04 0.05 0.03 0.03 nan nan nan nan nan 0.05 0.25 0.30 0.73 0.54 0.70 0.79 0.68 0.91 0.70
0.05 0.06 0.06 0.05 0.08 0.05 0.04 0.04 0.04 0.03 0.04 0.03 0.04 0.04 0.04 0.03 nan nan nan 0.03 0.03 0.03 0.03 0.04 0.05 0.06 0.04 0.04 0.05 0.14 0.15 0.15 0.14 0.18 0.30 0.46 0.43 0.26 0.34 0.51 0.73 0.78 0.74
0.03 0.04 0.04 0.06 0.13 0.07 0.17 0.07 0.05 0.08 0.08 0.12 0.10 0.24 0.23 0.18 nan nan 0.05 0.08 0.07 0.08 0.05 0.05 0.06 0.08 nan nan 0.28 0.70 0.80 0.69 nan nan nan nan nan nan nan 1.24 2.48 2.69 1.51
0.03 0.03 0.04 0.07 0.20 0.14 0.07 0.17 0.17 0.19 0.21 0.36 0.28 0.32 0.21 0.43 nan nan nan 0.54 0.58 0.45 0.22 0.15 0.34 0.13 nan nan 0.46 0.90 1.25 0.67 0.74 1.06 0.74 0.36 nan nan nan 0.43 1.00 2.40 1.43
0.08 0.08 0.10 0.10 0.27 0.12 0.21 0.18 0.34 0.47 0.32 0.54 0.57 0.46 0.49 0.34 0.20 nan nan 0.33 0.68 0.97 0.96 0.72 0.53 nan nan nan nan 0.96 0.96 0.75 1.39 1.14 1.00 0.96 0.76 0.66 0.66 0.56 0.40 0.64 1.25
0.17 0.19 0.25 0.40 0.33 0.31 0.71 0.50 0.74 0.67 0.71 0.70 0.76 0.65 0.56 0.33 nan nan nan nan nan 1.52 0.93 0.67 0.63 nan nan nan 0.64 nan nan 0.80 1.67 1.80 1.58 1.29 0.93 0.79 0.57 0.39 0.15 0.18 0.18
0.48 0.73 0.72 0.65 0.68 0.70 0.99 0.73 0.97 0.85 1.00 0.64 0.80 0.75 0.55 0.52 0.57 nan nan nan nan 1.01 0.73 0.61 nan nan nan nan nan nan 0.56 1.21 1.46 1.72 1.18 0.74 0.50 0.35 0.17 0.30 0.17 0.21 0.15
0.98 0.52 0.42 0.58 0.49 0.61 0.79 0.89 1.28 1.03 0.88 0.96 1.07 0.99 0.67 0.69 0.66 0.65 0.99 0.84 0.82 1.07 nan 0.85 nan 0.59 nan nan 0.65 0.58 0.80 0.86 0.93 1.01 0.83 0.45 0.32 0.50 0.67 0.51 0.75 0.66 1.22
0.64 0.35 0.47 0.69 0.80 0.47 0.42 0.71 0.62 0.39 0.88 1.58 1.92 1.39 1.55 1.51 1.18 0.61 1.35 1.66 1.54 1.51 1.41 1.89 1.49 0.97 0.89 0.78 0.98 0.89 0.80 0.91 1.01 0.97 1.02 0.86 0.80 0.83 0.76 0.62 0.73 1.01 1.31
0.40 0.58 0.55 0.55 0.50 0.46 0.50 0.52 nan nan nan nan nan 1.22 1.63 nan nan nan nan nan nan nan 2.81 2.79 1.41 1.14 0.87 0.84 0.98 0.90 0.82 0.77 0.83 0.98 1.03 0.96 1.03 0.88 0.93 1.05 1.01 1.18 1.25
0.76 0.51 0.65 0.55 0.59 0.69 0.75 0.88 0.98 0.76 nan nan nan nan nan nan nan nan nan nan nan nan 4.04 2.09 1.69 1.16 1.06 0.82 0.99 0.91 0.88 0.74 0.60 1.00 0.97 1.07 1.18 1.31 1.38 1.29 1.08 1.03 1.49
0.83 0.82 0.86 0.81 0.79 0.82 0.88 0.93 0.97 1.14 1.29 1.08 nan nan nan nan nan nan nan nan 3.39 nan 2.90 2.94 2.41 1.85 1.39 1.25 1.06 1.05 1.03 1.00 0.97 1.09 1.17 1.65 1.86 2.10 1.92 1.84 1.44 1.77 1.62
0.85 0.74 0.81 0.83 0.81 0.84 0.92 0.84 0.92 0.95 1.02 1.27 1.23 1.28 1.21 nan nan nan nan 2.36 3.14 2.67 2.60 2.71 2.21 2.05 1.68 1.79 1.65 1.87 1.55 1.60 1.55 2.12 2.12 2.37 2.18 2.30 2.22 1.58 1.25 1.04 1.17
0.90 0.91 0.88 1.15 0.98 0.90 0.69 0.90 0.85 0.90 0.97 1.15 1.20 1.07 1.86 2.10 2.76 2.84 2.36 3.27 3.19 2.80 2.46 2.69 2.70 3.00 3.02 2.74 2.67 2.44 2.42 2.49 2.22 2.38 2.37 2.25 2.11 2.29 1.51 2.18 1.89 1.55 1.76
1.33 1.13 0.89 1.01 1.31 1.33 1.36 1.08 0.84 1.21 1.09 1.33 1.06 1.07 nan 1.94 2.01 2.26 2.67 2.45 2.90 3.14 2.51 2.77 2.88 3.72 3.84 4.25 3.49 3.33 3.05 1.85 2.34 2.62 2.82 2.75 2.66 3.33 1.99 1.23 1.88 2.08 2.03
1.45 1.53 1.53 1.65 1.11 1.20 1.42 0.96 1.10 1.11 1.07 0.95 0.77 0.91 nan 1.17 1.47 1.57 1.74 2.39 2.90 2.87 3.25 3.84 3.75 4.15 3.68 3.40 3.03 2.80 2.27 2.76 3.04 2.81 2.20 2.33 2.81 2.45 2.44 1.63 1.73 1.51 2.09
1.18 1.00 1.13 1.17 1.14 1.46 1.36 1.61 1.39 1.34 1.20 1.36 1.20 1.14 1.36 1.89 1.54 1.47 2.37 2.68 2.08 1.94 2.27 2.42 2.27 2.24 2.08 2.47 2.18 2.10 2.25 2.58 2.70 3.68 2.38 2.52 2.44 2.90 2.61 2.30 2.02 2.26 2.15
1.13 1.18 1.14 1.57 1.35 1.12 1.39 1.50 1.26 1.53 1.34 1.46 2.50 1.97 1.09 1.47 2.30 1.64 1.77 2.16 1.74 3.17 2.18 2.36 1.89 1.86 2.10 3.31 4.30 4.22 4.60 4.85 4.58 4.14 3.66 2.34 2.33 2.08 2.03 2.42 1.90 1.84 1.50
1.49 1.23 1.24 1.14 1.87 1.44 1.34 1.69 1.13 1.66 2.02 1.56 2.00 1.39 1.43 1.35 1.54 2.32 2.13 1.69 1.94 1.79 1.51 1.51 1.57 1.62 1.68 1.77 2.58 3.41 3.64 1.49 2.66 1.62 3.14 2.08 2.55 2.61 2.48 2.11 1.96 1.64 1.44
1.17 1.24 1.30 1.36 1.34 1.51 1.61 1.58 1.66 1.29 1.71 1.84 1.71 1.74 1.47 1.47 1.48 1.86 1.70 1.71 1.36 1.43 1.49 1.64 1.61 1.39 1.30 1.51 1.63 1.71 1.38 1.21 2.80 1.40 2.51 1.99 2.32 2.11 2.08 2.11 1.94 1.84 1.48
SL_Ratio
nan nan nan nan nan nan nan nan nan nan nan nan nan nan nan nan nan nan nan nan nan nan nan nan nan nan nan nan nan nan nan nan 2.5 5.8 7.5 5.6 3.6 5.5 2.2 nan nan nan nan
nan nan nan nan nan nan nan nan nan nan nan nan nan nan nan nan nan nan nan nan nan nan nan nan nan nan nan nan nan nan nan nan 2.5 5.2 5.2 5.3 5.2 4.1 3.0 3.2 5.5 nan 2.8
nan nan nan nan nan nan nan nan nan nan nan nan nan nan nan nan nan nan nan nan nan nan nan nan nan 0.0 2.5 2.6 nan 2.4 2.5 nan 1.7 2.8 4.4 4.3 4.8 3.4 3.5 3.8 3.7 3.5 4.1
nan nan nan nan nan nan nan nan nan nan nan nan nan nan nan nan nan nan nan nan nan nan nan nan nan nan 2.5 2.5 2.5 2.6 2.3 2.7 2.6 2.6 3.1 4.0 4.1 4.2 3.6 4.2 5.1 4.7 4.6
nan nan nan nan nan nan nan 2.5 2.5 2.5 nan nan nan 3.0 nan nan nan nan nan 3.1 2.5 nan 2.6 2.6 2.9 0.0 nan nan 2.6 2.6 2.8 2.9 3.2 3.5 3.9 4.1 4.4 5.3 4.9 4.7 5.3 5.5 5.5
nan 0.0 0.0 2.7 2.8 2.7 2.7 2.7 2.9 2.9 3.0 3.3 3.3 3.3 3.2 nan nan nan 2.6 2.6 2.7 2.6 2.7 2.6 2.5 2.7 2.7 nan nan nan nan 2.7 4.0 3.9 4.3 4.7 4.4 4.5 4.8 6.0 6.2 7.4 8.1
2.9 3.1 3.2 3.0 3.3 3.1 3.1 3.4 3.4 3.5 3.4 3.6 3.4 3.5 3.6 3.2 nan nan nan 2.7 2.9 2.8 2.7 2.9 2.8 2.5 3.0 2.8 nan nan nan nan nan 3.1 4.3 4.2 5.2 4.7 5.0 6.7 6.8 6.7 6.5
3.3 3.4 3.8 3.6 4.2 4.3 3.9 3.8 3.8 3.7 3.8 3.6 3.8 3.8 3.7 3.5 nan nan nan 3.0 3.2 3.1 2.9 3.0 3.0 3.3 3.3 3.3 2.9 3.3 3.2 3.3 3.2 3.3 3.6 3.7 3.8 3.8 4.3 5.4 6.3 6.6 6.1
3.8 4.0 4.0 4.3 5.0 4.4 4.3 4.2 4.1 4.3 4.7 4.1 4.1 4.4 4.5 4.1 nan nan 3.2 3.6 3.9 4.1 3.7 3.3 3.3 3.6 nan nan 4.1 4.9 5.0 4.3 nan nan nan nan nan nan nan 5.3 6.6 6.8 6.8
4.2 4.1 4.5 4.7 4.8 4.3 4.1 4.7 5.9 5.4 6.8 6.6 5.4 4.6 3.5 4.2 nan nan nan 3.9 4.6 5.4 5.3 4.8 3.1 3.6 nan nan 4.2 4.9 7.5 6.3 4.7 4.6 4.5 4.2 nan nan nan 5.4 5.6 7.2 7.4
5.6 6.0 6.5 6.1 4.7 4.2 4.8 6.4 6.0 6.0 7.0 6.0 6.5 6.0 5.0 3.9 4.0 nan nan 3.9 4.5 6.0 6.0 6.1 5.0 nan nan nan nan 4.1 5.3 4.5 4.5 5.4 5.7 5.5 5.5 5.7 5.8 5.8 6.7 6.1 7.0
6.8 7.5 7.6 5.5 5.0 4.8 4.7 5.9 5.8 6.1 6.4 7.9 7.1 7.5 6.7 6.7 nan nan nan nan nan 5.6 6.5 5.8 5.4 nan nan nan 3.1 nan nan 3.7 5.2 5.8 6.7 7.1 7.0 7.1 7.0 7.4 8.3 7.2 6.4
7.8 7.5 7.3 6.9 5.6 4.8 4.6 6.3 6.8 6.1 8.1 8.5 7.8 7.8 7.6 7.1 6.0 nan nan nan nan 5.6 5.3 5.8 nan nan nan nan nan nan 3.0 5.9 6.6 7.7 8.4 7.8 7.2 7.1 7.8 7.8 8.3 7.8 7.7
7.3 8.2 8.5 8.3 7.2 7.4 6.3 6.5 6.6 7.4 8.3 8.3 8.6 8.5 8.4 8.5 7.3 6.1 5.1 3.9 3.9 5.7 nan 5.5 nan 5.0 nan nan 5.2 5.1 6.1 6.6 7.2 7.9 8.3 8.4 7.6 8.6 8.3 7.8 8.2 8.2 7.9
8.0 9.8 8.1 7.4 7.5 8.8 8.5 7.0 7.4 7.1 6.8 7.6 7.3 7.7 8.5 8.7 8.0 6.0 6.1 6.7 5.8 5.9 5.0 6.5 6.8 7.2 7.6 7.8 7.9 7.6 7.4 7.4 8.2 7.8 8.6 8.8 8.6 8.3 8.3 8.3 8.3 8.4 8.4
9.3 9.2 7.9 8.3 8.5 8.9 9.5 9.5 nan nan nan nan nan 6.7 6.6 nan nan nan nan nan nan nan 6.1 6.9 7.8 8.0 8.7 9.1 9.5 9.7 9.7 8.6 9.3 9.1 9.1 8.8 8.8 8.9 8.8 8.5 8.3 8.5 8.9
7.9 9.7 9.6 9.0 9.8 9.5 9.4 9.4 9.5 8.9 nan nan nan nan nan nan nan nan nan nan nan nan 6.6 7.4 8.8 9.3 9.7 10.3 10.1 10.4 10.7 10.4 10.8 9.9 9.8 9.3 9.1 9.0 8.7 8.8 8.8 8.9 8.5
9.0 3.0 9.4 9.7 9.7 9.8 9.8 9.8 9.8 9.6 9.6 9.6 nan nan nan nan nan nan nan nan 7.4 nan 7.4 8.0 8.4 8.8 9.6 10.1 10.6 10.9 10.9 10.9 10.8 10.3 10.1 9.2 8.9 8.7 8.7 8.4 8.6 8.3 8.3
9.6 9.8 9.7 9.7 9.7 9.6 9.8 10.2 10.0 10.0 10.0 9.6 9.7 9.4 5.5 nan nan nan nan 7.5 7.8 8.2 8.3 8.3 8.8 9.2 9.8 9.6 9.7 9.4 10.0 10.0 10.1 9.3 9.1 8.8 8.7 8.5 8.3 8.5 8.8 6.6 6.9
9.8 4.1 7.7 9.7 10.1 10.3 10.6 10.5 10.7 10.5 10.5 10.1 10.0 10.0 9.0 7.9 8.1 8.2 8.5 7.8 7.9 8.3 8.6 8.6 8.7 8.5 8.5 8.6 8.7 8.9 9.0 9.0 9.3 9.1 9.2 9.0 8.8 8.5 9.3 8.2 8.4 9.0 8.2
9.9 10.3 3.0 10.6 10.1 10.0 10.0 10.6 11.1 10.3 10.5 10.0 10.3 10.1 nan 9.3 9.2 9.0 8.7 8.9 8.5 8.4 8.9 8.6 8.7 8.1 8.0 7.7 8.3 8.4 8.7 9.8 9.1 9.0 8.7 8.7 8.7 8.2 8.7 9.7 8.5 8.2 8.3
10.3 10.0 10.0 10.1 11.1 11.1 10.5 11.4 11.1 11.0 11.1 11.3 11.7 10.7 nan 10.5 10.3 10.2 10.0 9.1 8.8 8.8 8.6 8.2 8.3 8.0 8.3 8.5 8.8 8.9 9.4 8.8 8.5 8.9 9.6 9.4 8.9 9.0 8.7 9.3 9.0 9.3 8.4
11.0 11.8 11.5 11.7 11.7 4.6 11.2 10.5 10.9 10.9 11.1 10.6 10.7 11.0 10.7 9.8 10.2 10.5 9.3 9.3 10.0 10.2 9.8 9.6 9.7 9.8 9.7 9.4 9.6 9.6 9.6 9.2 9.1 8.3 9.6 9.4 9.6 8.9 8.9 9.0 9.0 8.8 8.6
12.1 11.8 11.7 10.5 10.8 11.7 11.1 10.9 11.4 4.1 11.0 10.6 9.5 9.9 11.3 10.7 9.9 11.1 10.8 10.2 10.7 9.0 10.0 9.8 10.5 10.5 9.9 8.6 7.9 8.0 7.8 7.6 7.9 8.1 8.4 9.8 9.9 9.2 10.1 9.1 9.3 8.9 9.7
11.4 11.9 11.6 11.7 10.2 11.0 11.3 10.6 11.8 10.7 10.3 10.9 10.1 11.3 11.5 11.9 11.4 9.9 10.1 10.6 10.2 10.3 10.6 10.7 10.4 10.2 10.1 9.8 9.0 8.4 7.6 3.0 7.2 3.0 8.9 10.0 9.6 9.6 9.8 9.7 9.6 10.0 9.9
12.0 11.9 11.8 11.6 11.8 11.3 11.0 11.1 10.9 11.7 10.9 10.7 11.0 10.9 11.4 11.4 11.1 10.3 10.5 10.5 11.0 10.8 10.5 10.1 10.0 10.2 10.3 10.1 10.0 4.1 3.0 3.0 8.3 3.0 9.4 10.3 10.0 10.6 10.8 10.6 10.8 10.4 10.5